owner,sensor,date,latitude,longitude,vertical_datum,wind_speed,wind_to_direction,wind_speed_of_gust,qcFlag 
COMPS,ioos:station:USF.COMPS:ARP:1,2015-12-01T00:00:00Z,28.4330,-82.6670,10.0,1.77,76.78,2.45,'1111122,1111122,1111122' 
COMPS,ioos:station:USF.COMPS:ARP:1,2015-12-01T00:06:00Z,28.4330,-82.6670,10.0,1.78,77.89,2.54,'1111122,1111122,1111122' 
COMPS,ioos:station:USF.COMPS:ARP:1,2015-12-01T00:12:00Z,28.4330,-82.6670,10.0,1.93,81.08,3.13,'1111122,1111122,1111122' 
COMPS,ioos:station:USF.COMPS:ARP:1,2015-12-01T00:18:00Z,28.4330,-82.6670,10.0,1.34,89.59,2.05,'1111122,1111122,1111122' 
COMPS,ioos:station:USF.COMPS:ARP:1,2015-12-01T00:24:00Z,28.4330,-82.6670,10.0,1.48,89.49,1.95,'1111122,1111122,1111122' 
COMPS,ioos:station:USF.COMPS:ARP:1,2015-12-01T00:30:00Z,28.4330,-82.6670,10.0,1.7,90.99,2.45,'1111122,1111122,1111122' 
COMPS,ioos:station:USF.COMPS:ARP:1,2015-12-01T00:36:00Z,28.4330,-82.6670,10.0,1.72,92.0,2.74,'1111122,1111122,1111122' 
COMPS,ioos:station:USF.COMPS:ARP:1,2015-12-01T00:42:00Z,28.4330,-82.6670,10.0,1.42,92.11,2.05,'1111122,1111122,1111122' 
COMPS,ioos:station:USF.COMPS:ARP:1,2015-12-01T00:48:00Z,28.4330,-82.6670,10.0,1.21,96.56,1.76,'1111122,1111122,1111122' 
COMPS,ioos:station:USF.COMPS:ARP:1,2015-12-01T00:54:00Z,28.4330,-82.6670,10.0,1.3,89.49,1.86,'1111122,1111122,1111122' 
COMPS,ioos:station:USF.COMPS:ARP:1,2015-12-01T03:00:00Z,28.4330,-82.6670,10.0,1.71,102.53,2.35,'1111122,1111122,1111122' 
COMPS,ioos:station:USF.COMPS:ARP:1,2015-12-01T03:06:00Z,28.4330,-82.6670,10.0,1.68,101.26,2.45,'1111122,1111122,1111122' 
COMPS,ioos:station:USF.COMPS:ARP:1,2015-12-01T03:12:00Z,28.4330,-82.6670,10.0,1.76,103.12,2.84,'1111122,1111122,1111122' 
COMPS,ioos:station:USF.COMPS:ARP:1,2015-12-01T03:18:00Z,28.4330,-82.6670,10.0,1.63,101.09,2.54,'1111122,1111122,1111122' 
COMPS,ioos:station:USF.COMPS:ARP:1,2015-12-01T03:24:00Z,28.4330,-82.6670,10.0,1.73,105.44,2.54,'1111122,1111122,1111122' 
COMPS,ioos:station:USF.COMPS:ARP:1,2015-12-01T03:30:00Z,28.4330,-82.6670,10.0,1.56,101.33,2.15,'1111122,1111122,1111122' 
COMPS,ioos:station:USF.COMPS:ARP:1,2015-12-01T03:36:00Z,28.4330,-82.6670,10.0,1.64,100.03,2.84,'1111122,1111122,1111122' 
COMPS,ioos:station:USF.COMPS:ARP:1,2015-12-01T03:42:00Z,28.4330,-82.6670,10.0,1.45,98.15,2.15,'1111122,1111122,1111122' 
COMPS,ioos:station:USF.COMPS:ARP:1,2015-12-01T03:48:00Z,28.4330,-82.6670,10.0,1.33,95.28,1.76,'1111122,1111122,1111122' 
COMPS,ioos:station:USF.COMPS:ARP:1,2015-12-01T03:54:00Z,28.4330,-82.6670,10.0,1.39,90.47,2.05,'1111122,1111122,1111122' 
COMPS,ioos:station:USF.COMPS:ARP:1,2015-12-01T04:00:00Z,28.4330,-82.6670,10.0,1.41,88.1,1.86,'1111122,1111122,1111122' 
COMPS,ioos:station:USF.COMPS:ARP:1,2015-12-01T04:06:00Z,28.4330,-82.6670,10.0,1.61,92.61,1.95,'1111122,1111122,1111122' 
COMPS,ioos:station:USF.COMPS:ARP:1,2015-12-01T04:12:00Z,28.4330,-82.6670,10.0,1.7,101.02,2.54,'1111122,1111122,1111122' 
COMPS,ioos:station:USF.COMPS:ARP:1,2015-12-01T04:18:00Z,28.4330,-82.6670,10.0,1.68,98.86,2.54,'1111122,1111122,1111122' 
COMPS,ioos:station:USF.COMPS:ARP:1,2015-12-01T04:24:00Z,28.4330,-82.6670,10.0,1.9,101.3,3.03,'1111122,1111122,1111122' 
COMPS,ioos:station:USF.COMPS:ARP:1,2015-12-01T04:30:00Z,28.4330,-82.6670,10.0,1.88,95.3,2.84,'1111122,1111122,1111122' 
COMPS,ioos:station:USF.COMPS:ARP:1,2015-12-01T04:36:00Z,28.4330,-82.6670,10.0,1.74,95.17,2.93,'1111122,1111122,1111122' 
COMPS,ioos:station:USF.COMPS:ARP:1,2015-12-01T04:42:00Z,28.4330,-82.6670,10.0,1.78,95.21,2.74,'1111122,1111122,1111122' 
COMPS,ioos:station:USF.COMPS:ARP:1,2015-12-01T04:48:00Z,28.4330,-82.6670,10.0,1.41,94.83,1.86,'1111122,1111122,1111122' 
COMPS,ioos:station:USF.COMPS:ARP:1,2015-12-01T04:54:00Z,28.4330,-82.6670,10.0,1.29,89.81,1.66,'1111122,1111122,1111122' 
COMPS,ioos:station:USF.COMPS:ARP:1,2015-12-01T05:00:00Z,28.4330,-82.6670,10.0,1.11,91.03,1.46,'1111122,1111122,1111122' 
COMPS,ioos:station:USF.COMPS:ARP:1,2015-12-01T05:06:00Z,28.4330,-82.6670,10.0,1.21,91.28,1.76,'1111122,1111122,1111122' 
COMPS,ioos:station:USF.COMPS:ARP:1,2015-12-01T05:12:00Z,28.4330,-82.6670,10.0,1.25,96.21,1.56,'1111122,1111122,1111122' 
COMPS,ioos:station:USF.COMPS:ARP:1,2015-12-01T05:18:00Z,28.4330,-82.6670,10.0,1.33,98.27,2.15,'1111122,1111122,1111122' 
COMPS,ioos:station:USF.COMPS:ARP:1,2015-12-01T05:24:00Z,28.4330,-82.6670,10.0,1.54,98.61,2.35,'1111122,1111122,1111122' 
COMPS,ioos:station:USF.COMPS:ARP:1,2015-12-01T05:30:00Z,28.4330,-82.6670,10.0,1.76,97.84,2.74,'1111122,1111122,1111122' 
COMPS,ioos:station:USF.COMPS:ARP:1,2015-12-01T05:36:00Z,28.4330,-82.6670,10.0,2.16,97.45,3.52,'1111122,1111122,1111122' 
COMPS,ioos:station:USF.COMPS:ARP:1,2015-12-01T05:42:00Z,28.4330,-82.6670,10.0,2.35,98.82,4.01,'1111122,1111122,1111122' 
COMPS,ioos:station:USF.COMPS:ARP:1,2015-12-01T05:48:00Z,28.4330,-82.6670,10.0,2.45,101.7,3.62,'1111122,1111122,1111122' 
COMPS,ioos:station:USF.COMPS:ARP:1,2015-12-01T05:54:00Z,28.4330,-82.6670,10.0,2.41,97.71,3.72,'1111122,1111122,1111122' 
COMPS,ioos:station:USF.COMPS:ARP:1,2015-12-01T06:00:00Z,28.4330,-82.6670,10.0,2.21,91.26,4.31,'1111122,1111122,1111122' 
COMPS,ioos:station:USF.COMPS:ARP:1,2015-12-01T06:06:00Z,28.4330,-82.6670,10.0,2.05,93.8,3.13,'1111122,1111122,1111122' 
COMPS,ioos:station:USF.COMPS:ARP:1,2015-12-01T06:12:00Z,28.4330,-82.6670,10.0,2.5,98.5,3.42,'1111122,1111122,1111122' 
COMPS,ioos:station:USF.COMPS:ARP:1,2015-12-01T06:18:00Z,28.4330,-82.6670,10.0,2.12,96.39,3.23,'1111122,1111122,1111122' 
COMPS,ioos:station:USF.COMPS:ARP:1,2015-12-01T06:24:00Z,28.4330,-82.6670,10.0,2.04,97.95,2.84,'1111122,1111122,1111122' 
COMPS,ioos:station:USF.COMPS:ARP:1,2015-12-01T06:30:00Z,28.4330,-82.6670,10.0,2.12,97.05,3.42,'1111122,1111122,1111122' 
COMPS,ioos:station:USF.COMPS:ARP:1,2015-12-01T06:36:00Z,28.4330,-82.6670,10.0,2.29,99.06,3.23,'1111122,1111122,1111122' 
COMPS,ioos:station:USF.COMPS:ARP:1,2015-12-01T06:42:00Z,28.4330,-82.6670,10.0,2.56,103.88,3.62,'1111122,1111122,1111122' 
COMPS,ioos:station:USF.COMPS:ARP:1,2015-12-01T06:48:00Z,28.4330,-82.6670,10.0,2.59,105.57,3.72,'1111122,1111122,1111122' 
COMPS,ioos:station:USF.COMPS:ARP:1,2015-12-01T06:54:00Z,28.4330,-82.6670,10.0,2.43,105.37,3.52,'1111122,1111122,1111122' 
COMPS,ioos:station:USF.COMPS:ARP:1,2015-12-01T07:00:00Z,28.4330,-82.6670,10.0,2.08,103.36,2.93,'1111122,1111122,1111122' 
COMPS,ioos:station:USF.COMPS:ARP:1,2015-12-01T07:06:00Z,28.4330,-82.6670,10.0,2.42,104.85,3.91,'1111122,1111122,1111122' 
COMPS,ioos:station:USF.COMPS:ARP:1,2015-12-01T07:12:00Z,28.4330,-82.6670,10.0,2.58,104.67,3.52,'1111122,1111122,1111122' 
COMPS,ioos:station:USF.COMPS:ARP:1,2015-12-01T07:18:00Z,28.4330,-82.6670,10.0,2.25,101.44,3.82,'1111122,1111122,1111122' 
COMPS,ioos:station:USF.COMPS:ARP:1,2015-12-01T07:24:00Z,28.4330,-82.6670,10.0,2.33,101.0,3.33,'1111122,1111122,1111122' 
COMPS,ioos:station:USF.COMPS:ARP:1,2015-12-01T07:30:00Z,28.4330,-82.6670,10.0,2.04,99.87,3.03,'1111122,1111122,1111122' 
COMPS,ioos:station:USF.COMPS:ARP:1,2015-12-01T07:36:00Z,28.4330,-82.6670,10.0,2.3,104.01,3.42,'1111122,1111122,1111122' 
COMPS,ioos:station:USF.COMPS:ARP:1,2015-12-01T07:42:00Z,28.4330,-82.6670,10.0,2.54,110.96,3.72,'1111122,1111122,1111122' 
COMPS,ioos:station:USF.COMPS:ARP:1,2015-12-01T07:48:00Z,28.4330,-82.6670,10.0,2.57,105.09,3.72,'1111122,1111122,1111122' 
COMPS,ioos:station:USF.COMPS:ARP:1,2015-12-01T07:54:00Z,28.4330,-82.6670,10.0,2.37,101.99,4.21,'1111122,1111122,1111122' 
COMPS,ioos:station:USF.COMPS:ARP:1,2015-12-01T08:00:00Z,28.4330,-82.6670,10.0,2.15,100.96,3.23,'1111122,1111122,1111122' 
COMPS,ioos:station:USF.COMPS:ARP:1,2015-12-01T08:06:00Z,28.4330,-82.6670,10.0,2.13,109.03,3.33,'1111122,1111122,1111122' 
COMPS,ioos:station:USF.COMPS:ARP:1,2015-12-01T08:12:00Z,28.4330,-82.6670,10.0,2.23,106.28,3.52,'1111122,1111122,1111122' 
COMPS,ioos:station:USF.COMPS:ARP:1,2015-12-01T08:18:00Z,28.4330,-82.6670,10.0,2.25,100.76,3.13,'1111122,1111122,1111122' 
COMPS,ioos:station:USF.COMPS:ARP:1,2015-12-01T08:24:00Z,28.4330,-82.6670,10.0,2.24,103.27,2.93,'1111122,1111122,1111122' 
COMPS,ioos:station:USF.COMPS:ARP:1,2015-12-01T08:30:00Z,28.4330,-82.6670,10.0,2.3,104.23,3.52,'1111122,1111122,1111122' 
COMPS,ioos:station:USF.COMPS:ARP:1,2015-12-01T08:36:00Z,28.4330,-82.6670,10.0,2.17,104.17,3.13,'1111122,1111122,1111122' 
COMPS,ioos:station:USF.COMPS:ARP:1,2015-12-01T08:42:00Z,28.4330,-82.6670,10.0,2.17,101.86,3.13,'1111122,1111122,1111122' 
COMPS,ioos:station:USF.COMPS:ARP:1,2015-12-01T08:48:00Z,28.4330,-82.6670,10.0,2.02,107.11,3.52,'1111122,1111122,1111122' 
COMPS,ioos:station:USF.COMPS:ARP:1,2015-12-01T08:54:00Z,28.4330,-82.6670,10.0,2.39,105.06,3.72,'1111122,1111122,1111122' 
COMPS,ioos:station:USF.COMPS:ARP:1,2015-12-01T09:00:00Z,28.4330,-82.6670,10.0,2.35,106.0,3.52,'1111122,1111122,1111122' 
COMPS,ioos:station:USF.COMPS:ARP:1,2015-12-01T09:06:00Z,28.4330,-82.6670,10.0,2.13,103.98,2.84,'1111122,1111122,1111122' 
COMPS,ioos:station:USF.COMPS:ARP:1,2015-12-01T09:12:00Z,28.4330,-82.6670,10.0,1.98,102.56,2.64,'1111122,1111122,1111122' 
COMPS,ioos:station:USF.COMPS:ARP:1,2015-12-01T09:18:00Z,28.4330,-82.6670,10.0,2.1,101.54,3.13,'1111122,1111122,1111122' 
COMPS,ioos:station:USF.COMPS:ARP:1,2015-12-01T09:24:00Z,28.4330,-82.6670,10.0,2.53,99.76,3.03,'1111122,1111122,1111122' 
COMPS,ioos:station:USF.COMPS:ARP:1,2015-12-01T09:30:00Z,28.4330,-82.6670,10.0,1.88,100.05,2.54,'1111122,1111122,1111122' 
COMPS,ioos:station:USF.COMPS:ARP:1,2015-12-01T09:36:00Z,28.4330,-82.6670,10.0,1.76,107.05,2.54,'1111122,1111122,1111122' 
COMPS,ioos:station:USF.COMPS:ARP:1,2015-12-01T09:42:00Z,28.4330,-82.6670,10.0,1.87,103.04,2.54,'1111122,1111122,1111122' 
COMPS,ioos:station:USF.COMPS:ARP:1,2015-12-01T09:48:00Z,28.4330,-82.6670,10.0,1.8,105.61,2.64,'1111122,1111122,1111122' 
COMPS,ioos:station:USF.COMPS:ARP:1,2015-12-01T09:54:00Z,28.4330,-82.6670,10.0,1.78,102.39,2.84,'1111122,1111122,1111122' 
COMPS,ioos:station:USF.COMPS:ARP:1,2015-12-01T10:00:00Z,28.4330,-82.6670,10.0,2.19,104.82,3.13,'1111122,1111122,1111122' 
COMPS,ioos:station:USF.COMPS:ARP:1,2015-12-01T10:06:00Z,28.4330,-82.6670,10.0,2.09,104.56,2.84,'1111122,1111122,1111122' 
COMPS,ioos:station:USF.COMPS:ARP:1,2015-12-01T10:12:00Z,28.4330,-82.6670,10.0,2.16,101.03,3.03,'1111122,1111122,1111122' 
COMPS,ioos:station:USF.COMPS:ARP:1,2015-12-01T10:18:00Z,28.4330,-82.6670,10.0,2.11,106.56,3.13,'1111122,1111122,1111122' 
COMPS,ioos:station:USF.COMPS:ARP:1,2015-12-01T10:24:00Z,28.4330,-82.6670,10.0,2.08,99.33,3.23,'1111122,1111122,1111122' 
COMPS,ioos:station:USF.COMPS:ARP:1,2015-12-01T10:30:00Z,28.4330,-82.6670,10.0,2.25,104.31,3.23,'1111122,1111122,1111122' 
COMPS,ioos:station:USF.COMPS:ARP:1,2015-12-01T10:36:00Z,28.4330,-82.6670,10.0,2.0,102.56,2.74,'1111122,1111122,1111122' 
COMPS,ioos:station:USF.COMPS:ARP:1,2015-12-01T10:42:00Z,28.4330,-82.6670,10.0,1.85,102.79,2.45,'1111122,1111122,1111122' 
COMPS,ioos:station:USF.COMPS:ARP:1,2015-12-01T10:48:00Z,28.4330,-82.6670,10.0,2.05,109.86,2.64,'1111122,1111122,1111122' 
COMPS,ioos:station:USF.COMPS:ARP:1,2015-12-01T10:54:00Z,28.4330,-82.6670,10.0,2.01,104.42,2.93,'1111122,1111122,1111122' 
COMPS,ioos:station:USF.COMPS:ARP:1,2015-12-01T11:00:00Z,28.4330,-82.6670,10.0,2.17,104.84,3.03,'1111122,1111122,1111122' 
COMPS,ioos:station:USF.COMPS:ARP:1,2015-12-01T11:06:00Z,28.4330,-82.6670,10.0,2.06,103.81,3.33,'1111122,1111122,1111122' 
COMPS,ioos:station:USF.COMPS:ARP:1,2015-12-01T11:12:00Z,28.4330,-82.6670,10.0,2.17,108.2,2.74,'1111122,1111122,1111122' 
COMPS,ioos:station:USF.COMPS:ARP:1,2015-12-01T11:18:00Z,28.4330,-82.6670,10.0,2.15,106.74,3.13,'1111122,1111122,1111122' 
COMPS,ioos:station:USF.COMPS:ARP:1,2015-12-01T11:24:00Z,28.4330,-82.6670,10.0,1.96,109.49,2.93,'1111122,1111122,1111122' 
COMPS,ioos:station:USF.COMPS:ARP:1,2015-12-01T11:30:00Z,28.4330,-82.6670,10.0,1.85,104.84,2.64,'1111122,1111122,1111122' 
COMPS,ioos:station:USF.COMPS:ARP:1,2015-12-01T11:36:00Z,28.4330,-82.6670,10.0,2.0,107.91,3.03,'1111122,1111122,1111122' 
COMPS,ioos:station:USF.COMPS:ARP:1,2015-12-01T11:42:00Z,28.4330,-82.6670,10.0,2.03,107.81,3.23,'1111122,1111122,1111122' 
COMPS,ioos:station:USF.COMPS:ARP:1,2015-12-01T11:48:00Z,28.4330,-82.6670,10.0,2.03,105.05,2.93,'1111122,1111122,1111122' 
COMPS,ioos:station:USF.COMPS:ARP:1,2015-12-01T11:54:00Z,28.4330,-82.6670,10.0,2.12,104.69,2.93,'1111122,1111122,1111122' 
COMPS,ioos:station:USF.COMPS:ARP:1,2015-12-01T12:00:00Z,28.4330,-82.6670,10.0,1.85,104.78,3.13,'1111122,1111122,1111122' 
COMPS,ioos:station:USF.COMPS:ARP:1,2015-12-01T12:06:00Z,28.4330,-82.6670,10.0,1.71,102.51,2.84,'1111122,1111122,1111122' 
COMPS,ioos:station:USF.COMPS:ARP:1,2015-12-01T12:12:00Z,28.4330,-82.6670,10.0,1.95,101.12,2.84,'1111122,1111122,1111122' 
COMPS,ioos:station:USF.COMPS:ARP:1,2015-12-01T12:18:00Z,28.4330,-82.6670,10.0,1.92,101.52,2.84,'1111122,1111122,1111122' 
COMPS,ioos:station:USF.COMPS:ARP:1,2015-12-01T12:24:00Z,28.4330,-82.6670,10.0,1.98,102.88,2.84,'1111122,1111122,1111122' 
COMPS,ioos:station:USF.COMPS:ARP:1,2015-12-01T12:30:00Z,28.4330,-82.6670,10.0,2.02,106.39,2.84,'1111122,1111122,1111122' 
COMPS,ioos:station:USF.COMPS:ARP:1,2015-12-01T12:36:00Z,28.4330,-82.6670,10.0,1.79,106.75,2.35,'1111122,1111122,1111122' 
COMPS,ioos:station:USF.COMPS:ARP:1,2015-12-01T12:42:00Z,28.4330,-82.6670,10.0,1.85,102.67,2.54,'1111122,1111122,1111122' 
COMPS,ioos:station:USF.COMPS:ARP:1,2015-12-01T12:48:00Z,28.4330,-82.6670,10.0,1.88,102.06,2.93,'1111122,1111122,1111122' 
COMPS,ioos:station:USF.COMPS:ARP:1,2015-12-01T12:54:00Z,28.4330,-82.6670,10.0,2.06,106.27,2.93,'1111122,1111122,1111122' 
COMPS,ioos:station:USF.COMPS:ARP:1,2015-12-01T13:00:00Z,28.4330,-82.6670,10.0,1.96,99.3,3.23,'1111122,1111122,1111122' 
COMPS,ioos:station:USF.COMPS:ARP:1,2015-12-01T13:06:00Z,28.4330,-82.6670,10.0,1.76,99.75,2.84,'1111122,1111122,1111122' 
COMPS,ioos:station:USF.COMPS:ARP:1,2015-12-01T13:12:00Z,28.4330,-82.6670,10.0,2.02,101.03,2.84,'1111122,1111122,1111122' 
COMPS,ioos:station:USF.COMPS:ARP:1,2015-12-01T13:18:00Z,28.4330,-82.6670,10.0,2.07,107.78,3.72,'1111122,1111122,1111122' 
COMPS,ioos:station:USF.COMPS:ARP:1,2015-12-01T13:24:00Z,28.4330,-82.6670,10.0,1.55,105.22,2.74,'1111122,1111122,1111122' 
COMPS,ioos:station:USF.COMPS:ARP:1,2015-12-01T13:30:00Z,28.4330,-82.6670,10.0,2.06,113.41,3.82,'1111122,1111122,1111122' 
COMPS,ioos:station:USF.COMPS:ARP:1,2015-12-01T13:36:00Z,28.4330,-82.6670,10.0,1.64,109.62,3.23,'1111122,1111122,1111122' 
COMPS,ioos:station:USF.COMPS:ARP:1,2015-12-01T13:42:00Z,28.4330,-82.6670,10.0,1.66,102.89,2.54,'1111122,1111122,1111122' 
COMPS,ioos:station:USF.COMPS:ARP:1,2015-12-01T13:48:00Z,28.4330,-82.6670,10.0,1.89,113.92,3.33,'1111122,1111122,1111122' 
COMPS,ioos:station:USF.COMPS:ARP:1,2015-12-01T13:54:00Z,28.4330,-82.6670,10.0,1.76,116.19,2.84,'1111122,1111122,1111122' 
COMPS,ioos:station:USF.COMPS:ARP:1,2015-12-01T14:00:00Z,28.4330,-82.6670,10.0,1.94,100.33,3.03,'1111122,1111122,1111122' 
COMPS,ioos:station:USF.COMPS:ARP:1,2015-12-01T14:06:00Z,28.4330,-82.6670,10.0,1.6,110.82,2.74,'1111122,1111122,1111122' 
COMPS,ioos:station:USF.COMPS:ARP:1,2015-12-01T14:12:00Z,28.4330,-82.6670,10.0,2.06,107.05,3.03,'1111122,1111122,1111122' 
COMPS,ioos:station:USF.COMPS:ARP:1,2015-12-01T14:18:00Z,28.4330,-82.6670,10.0,2.4,106.72,4.11,'1111122,1111122,1111122' 
COMPS,ioos:station:USF.COMPS:ARP:1,2015-12-01T14:24:00Z,28.4330,-82.6670,10.0,2.05,110.09,3.82,'1111122,1111122,1111122' 
COMPS,ioos:station:USF.COMPS:ARP:1,2015-12-01T14:30:00Z,28.4330,-82.6670,10.0,1.29,119.98,2.45,'1111122,1111122,1111122' 
COMPS,ioos:station:USF.COMPS:ARP:1,2015-12-01T14:36:00Z,28.4330,-82.6670,10.0,1.46,113.26,2.54,'1111122,1111122,1111122' 
COMPS,ioos:station:USF.COMPS:ARP:1,2015-12-01T14:42:00Z,28.4330,-82.6670,10.0,2.1,107.39,3.82,'1111122,1111122,1111122' 
COMPS,ioos:station:USF.COMPS:ARP:1,2015-12-01T14:48:00Z,28.4330,-82.6670,10.0,1.93,105.29,3.03,'1111122,1111122,1111122' 
COMPS,ioos:station:USF.COMPS:ARP:1,2015-12-01T14:54:00Z,28.4330,-82.6670,10.0,1.66,110.55,3.13,'1111122,1111122,1111122' 
COMPS,ioos:station:USF.COMPS:ARP:1,2015-12-01T15:00:00Z,28.4330,-82.6670,10.0,1.46,119.2,2.74,'1111122,1111122,1111122' 
COMPS,ioos:station:USF.COMPS:ARP:1,2015-12-01T15:06:00Z,28.4330,-82.6670,10.0,1.24,129.22,2.35,'1111122,1111122,1111122' 
COMPS,ioos:station:USF.COMPS:ARP:1,2015-12-01T15:12:00Z,28.4330,-82.6670,10.0,1.55,111.8,2.93,'1111122,1111122,1111122' 
COMPS,ioos:station:USF.COMPS:ARP:1,2015-12-01T15:18:00Z,28.4330,-82.6670,10.0,1.76,96.87,2.45,'1111122,1111122,1111122' 
COMPS,ioos:station:USF.COMPS:ARP:1,2015-12-01T15:24:00Z,28.4330,-82.6670,10.0,1.15,113.66,2.93,'1111122,1111122,1111122' 
COMPS,ioos:station:USF.COMPS:ARP:1,2015-12-01T15:30:00Z,28.4330,-82.6670,10.0,1.42,137.29,2.74,'1111122,1111122,1111122' 
COMPS,ioos:station:USF.COMPS:ARP:1,2015-12-01T15:36:00Z,28.4330,-82.6670,10.0,1.9,104.6,4.11,'1111122,1111122,1111122' 
COMPS,ioos:station:USF.COMPS:ARP:1,2015-12-01T15:42:00Z,28.4330,-82.6670,10.0,1.24,133.64,2.54,'1111122,1111122,1111122' 
COMPS,ioos:station:USF.COMPS:ARP:1,2015-12-01T15:48:00Z,28.4330,-82.6670,10.0,2.02,103.83,4.99,'1111122,1111122,1111122' 
COMPS,ioos:station:USF.COMPS:ARP:1,2015-12-01T15:54:00Z,28.4330,-82.6670,10.0,1.8,157.67,3.42,'1111122,1111122,1111122' 
COMPS,ioos:station:USF.COMPS:ARP:1,2015-12-01T16:00:00Z,28.4330,-82.6670,10.0,1.71,124.81,3.03,'1111122,1111122,1111122' 
COMPS,ioos:station:USF.COMPS:ARP:1,2015-12-01T16:06:00Z,28.4330,-82.6670,10.0,1.28,140.48,2.45,'1111122,1111122,1111122' 
COMPS,ioos:station:USF.COMPS:ARP:1,2015-12-01T16:12:00Z,28.4330,-82.6670,10.0,1.58,115.72,3.23,'1111122,1111122,1111122' 
COMPS,ioos:station:USF.COMPS:ARP:1,2015-12-01T16:18:00Z,28.4330,-82.6670,10.0,1.15,132.32,2.74,'1111122,1111122,1111122' 
COMPS,ioos:station:USF.COMPS:ARP:1,2015-12-01T16:24:00Z,28.4330,-82.6670,10.0,1.84,136.62,3.62,'1111122,1111122,1111122' 
COMPS,ioos:station:USF.COMPS:ARP:1,2015-12-01T16:30:00Z,28.4330,-82.6670,10.0,1.44,183.84,2.25,'1111122,1111122,1111122' 
COMPS,ioos:station:USF.COMPS:ARP:1,2015-12-01T16:36:00Z,28.4330,-82.6670,10.0,1.19,149.17,2.25,'1111122,1111122,1111122' 
COMPS,ioos:station:USF.COMPS:ARP:1,2015-12-01T16:42:00Z,28.4330,-82.6670,10.0,1.64,111.76,2.74,'1111122,1111122,1111122' 
COMPS,ioos:station:USF.COMPS:ARP:1,2015-12-01T16:48:00Z,28.4330,-82.6670,10.0,1.23,105.93,2.45,'1111122,1111122,1111122' 
COMPS,ioos:station:USF.COMPS:ARP:1,2015-12-01T16:54:00Z,28.4330,-82.6670,10.0,1.4,106.66,2.64,'1111122,1111122,1111122' 
COMPS,ioos:station:USF.COMPS:ARP:1,2015-12-01T17:00:00Z,28.4330,-82.6670,10.0,1.8,106.23,3.52,'1111122,1111122,1111122' 
COMPS,ioos:station:USF.COMPS:ARP:1,2015-12-01T17:06:00Z,28.4330,-82.6670,10.0,1.19,111.04,3.33,'1111122,1111122,1111122' 
COMPS,ioos:station:USF.COMPS:ARP:1,2015-12-01T17:12:00Z,28.4330,-82.6670,10.0,0.98,139.44,2.93,'1111122,1111122,1111122' 
COMPS,ioos:station:USF.COMPS:ARP:1,2015-12-01T17:18:00Z,28.4330,-82.6670,10.0,0.57,67.97,1.37,'1111122,1111122,1111122' 
COMPS,ioos:station:USF.COMPS:ARP:1,2015-12-01T17:24:00Z,28.4330,-82.6670,10.0,1.05,99.32,1.95,'1111122,1111122,1111122' 
COMPS,ioos:station:USF.COMPS:ARP:1,2015-12-01T17:30:00Z,28.4330,-82.6670,10.0,1.09,100.23,2.25,'1111122,1111122,1111122' 
COMPS,ioos:station:USF.COMPS:ARP:1,2015-12-01T17:36:00Z,28.4330,-82.6670,10.0,1.1,73.9,2.64,'1111122,1111122,1111122' 
COMPS,ioos:station:USF.COMPS:ARP:1,2015-12-01T17:42:00Z,28.4330,-82.6670,10.0,0.92,181.05,2.35,'1111122,1111122,1111122' 
COMPS,ioos:station:USF.COMPS:ARP:1,2015-12-01T17:48:00Z,28.4330,-82.6670,10.0,1.13,263.18,2.05,'1111122,1111122,1111122' 
COMPS,ioos:station:USF.COMPS:ARP:1,2015-12-01T17:54:00Z,28.4330,-82.6670,10.0,2.03,302.98,2.84,'1111122,1111122,1111122' 
COMPS,ioos:station:USF.COMPS:ARP:1,2015-12-01T18:00:00Z,28.4330,-82.6670,10.0,1.88,314.06,2.64,'1111122,1111122,1111122' 
COMPS,ioos:station:USF.COMPS:ARP:1,2015-12-01T18:06:00Z,28.4330,-82.6670,10.0,1.79,315.03,3.03,'1111122,1111122,1111122' 
COMPS,ioos:station:USF.COMPS:ARP:1,2015-12-01T18:12:00Z,28.4330,-82.6670,10.0,1.62,313.86,2.54,'1111122,1111122,1111122' 
COMPS,ioos:station:USF.COMPS:ARP:1,2015-12-01T18:18:00Z,28.4330,-82.6670,10.0,2.32,300.9,3.03,'1111122,1111122,1111122' 
COMPS,ioos:station:USF.COMPS:ARP:1,2015-12-01T18:24:00Z,28.4330,-82.6670,10.0,1.79,301.83,2.45,'1111122,1111122,1111122' 
COMPS,ioos:station:USF.COMPS:ARP:1,2015-12-01T18:30:00Z,28.4330,-82.6670,10.0,1.44,310.0,2.25,'1111122,1111122,1111122' 
COMPS,ioos:station:USF.COMPS:ARP:1,2015-12-01T18:36:00Z,28.4330,-82.6670,10.0,1.43,313.99,2.35,'1111122,1111122,1111122' 
COMPS,ioos:station:USF.COMPS:ARP:1,2015-12-01T18:42:00Z,28.4330,-82.6670,10.0,1.51,316.02,3.23,'1111122,1111122,1111122' 
COMPS,ioos:station:USF.COMPS:ARP:1,2015-12-01T18:48:00Z,28.4330,-82.6670,10.0,1.87,312.0,2.74,'1111122,1111122,1111122' 
COMPS,ioos:station:USF.COMPS:ARP:1,2015-12-01T18:54:00Z,28.4330,-82.6670,10.0,2.12,309.74,3.13,'1111122,1111122,1111122' 
COMPS,ioos:station:USF.COMPS:ARP:1,2015-12-01T19:00:00Z,28.4330,-82.6670,10.0,1.51,316.24,2.74,'1111122,1111122,1111122' 
COMPS,ioos:station:USF.COMPS:ARP:1,2015-12-01T19:06:00Z,28.4330,-82.6670,10.0,1.92,310.02,2.93,'1111122,1111122,1111122' 
COMPS,ioos:station:USF.COMPS:ARP:1,2015-12-01T19:12:00Z,28.4330,-82.6670,10.0,1.62,304.85,2.54,'1111122,1111122,1111122' 
COMPS,ioos:station:USF.COMPS:ARP:1,2015-12-01T19:18:00Z,28.4330,-82.6670,10.0,2.48,298.56,3.13,'1111122,1111122,1111122' 
COMPS,ioos:station:USF.COMPS:ARP:1,2015-12-01T19:24:00Z,28.4330,-82.6670,10.0,1.81,301.31,2.54,'1111122,1111122,1111122' 
COMPS,ioos:station:USF.COMPS:ARP:1,2015-12-01T19:30:00Z,28.4330,-82.6670,10.0,0.8,310.49,1.76,'1111122,1111122,1111122' 
COMPS,ioos:station:USF.COMPS:ARP:1,2015-12-01T19:36:00Z,28.4330,-82.6670,10.0,1.11,311.44,2.25,'1111122,1111122,1111122' 
COMPS,ioos:station:USF.COMPS:ARP:1,2015-12-01T19:42:00Z,28.4330,-82.6670,10.0,0.77,338.78,1.66,'1111122,1111122,1111122' 
COMPS,ioos:station:USF.COMPS:ARP:1,2015-12-01T19:48:00Z,28.4330,-82.6670,10.0,0.9,350.18,1.95,'1111122,1111122,1111122' 
COMPS,ioos:station:USF.COMPS:ARP:1,2015-12-01T19:54:00Z,28.4330,-82.6670,10.0,0.9,333.85,2.35,'1111122,1111122,1111122' 
COMPS,ioos:station:USF.COMPS:ARP:1,2015-12-01T20:00:00Z,28.4330,-82.6670,10.0,0.84,348.97,1.95,'1111122,1111122,1111122' 
COMPS,ioos:station:USF.COMPS:ARP:1,2015-12-01T20:06:00Z,28.4330,-82.6670,10.0,1.38,342.89,2.84,'1111122,1111122,1111122' 
COMPS,ioos:station:USF.COMPS:ARP:1,2015-12-01T20:12:00Z,28.4330,-82.6670,10.0,0.97,353.22,2.25,'1111122,1111122,1111122' 
COMPS,ioos:station:USF.COMPS:ARP:1,2015-12-01T20:18:00Z,28.4330,-82.6670,10.0,1.15,334.9,2.35,'1111122,1111122,1111122' 
COMPS,ioos:station:USF.COMPS:ARP:1,2015-12-01T20:24:00Z,28.4330,-82.6670,10.0,0.78,338.63,2.45,'1111122,1111122,1111122' 
COMPS,ioos:station:USF.COMPS:ARP:1,2015-12-01T20:30:00Z,28.4330,-82.6670,10.0,0.94,322.74,2.64,'1111122,1111122,1111122' 
COMPS,ioos:station:USF.COMPS:ARP:1,2015-12-01T20:36:00Z,28.4330,-82.6670,10.0,1.14,331.69,2.74,'1111122,1111122,1111122' 
COMPS,ioos:station:USF.COMPS:ARP:1,2015-12-01T20:42:00Z,28.4330,-82.6670,10.0,1.2,334.56,2.45,'1111122,1111122,1111122' 
COMPS,ioos:station:USF.COMPS:ARP:1,2015-12-01T20:48:00Z,28.4330,-82.6670,10.0,1.06,341.57,2.54,'1111122,1111122,1111122' 
COMPS,ioos:station:USF.COMPS:ARP:1,2015-12-01T20:54:00Z,28.4330,-82.6670,10.0,0.85,329.51,1.95,'1111122,1111122,1111122' 
COMPS,ioos:station:USF.COMPS:ARP:1,2015-12-01T21:00:00Z,28.4330,-82.6670,10.0,1.19,344.66,2.64,'1111122,1111122,1111122' 
COMPS,ioos:station:USF.COMPS:ARP:1,2015-12-01T21:06:00Z,28.4330,-82.6670,10.0,1.07,331.9,3.03,'1111122,1111122,1111122' 
COMPS,ioos:station:USF.COMPS:ARP:1,2015-12-01T21:12:00Z,28.4330,-82.6670,10.0,1.27,335.93,2.35,'1111122,1111122,1111122' 
COMPS,ioos:station:USF.COMPS:ARP:1,2015-12-01T21:18:00Z,28.4330,-82.6670,10.0,1.2,343.75,2.25,'1111122,1111122,1111122' 
COMPS,ioos:station:USF.COMPS:ARP:1,2015-12-01T21:24:00Z,28.4330,-82.6670,10.0,0.47,349.46,1.95,'1111122,1111122,1111122' 
COMPS,ioos:station:USF.COMPS:ARP:1,2015-12-01T21:30:00Z,28.4330,-82.6670,10.0,0.56,93.82,1.46,'1111122,1111122,1111122' 